Bowling Green, Kentucky, United States (42101)
Lat: 36.99N, Lon: 86.44W
Wx Zone: KYZ071
Local Info
Past Weather Observations for Today

NOTE: This archive is for the closest National Weather Service station to Bowling Green. Information may differ from the station used for current weather conditions.

Click here for Long-term Archive

Time Weather Temperature Dewpoint Humidity Pressure Winds Precip Visibility
07:35
Clear
Fog And Mist
61°F / 16°C 59°F / 15°C 94% 29.98 in
(1015 mb)
Calm - 5SM
07:15
Clear
Fog And Mist
59°F / 15°C 59°F / 15°C 100% 29.98 in
(1015 mb)
Calm - 5SM
06:55
Clear
Fog And Mist
55°F / 13°C 55°F / 13°C 100% 29.98 in
(1015 mb)
Calm - 5SM
06:35
Clear
Fog And Mist
52°F / 11°C 52°F / 11°C 100% 29.98 in
(1015 mb)
Calm - 2 1/2SM
06:15
Mostly Cloudy
Fog And Mist
50°F / 10°C 50°F / 10°C 100% 29.98 in
(1015 mb)
Calm - 4SM
05:55
Overcast
Fog And Mist
50°F / 10°C 50°F / 10°C 100% 29.98 in
(1015 mb)
Calm - 3/4SM
05:35
Clear
Fog And Mist
52°F / 11°C 52°F / 11°C 100% 29.98 in
(1015 mb)
Calm - 4SM
05:15
Obscured
Fog And Mist
52°F / 11°C 52°F / 11°C 100% 29.98 in
(1015 mb)
Calm - 1SM
04:55
Clear
Fog And Mist
52°F / 11°C 52°F / 11°C 100% 29.98 in
(1015 mb)
Calm - 2SM
04:35
Partly Cloudy
Fog And Mist
52°F / 11°C 52°F / 11°C 100% 29.95 in
(1014 mb)
Calm - 2SM
04:15
Obscured
Fog And Mist
52°F / 11°C 52°F / 11°C 100% 29.95 in
(1014 mb)
Calm - 1 1/4SM
03:55
Obscured
Fog
54°F / 12°C 54°F / 12°C 100% 29.95 in
(1014 mb)
Calm - 1/2SM
03:35
Partly Cloudy
Fog And Mist
54°F / 12°C 54°F / 12°C 100% 29.95 in
(1014 mb)
Calm - 3SM
03:15
Mostly Cloudy
Fog
54°F / 12°C 54°F / 12°C 100% 29.95 in
(1014 mb)
Calm - 1/2SM
02:55
Partly Cloudy
Fog And Mist
54°F / 12°C 54°F / 12°C 100% 29.95 in
(1014 mb)
Calm - 1 1/4SM
02:35
Obscured
Fog And Mist
54°F / 12°C 54°F / 12°C 100% 29.95 in
(1014 mb)
Calm - 1 3/4SM
02:15
Partly Cloudy
Fog And Mist
55°F / 13°C 55°F / 13°C 100% 29.95 in
(1014 mb)
Calm - 1 1/2SM
01:55
Mostly Cloudy
Fog
55°F / 13°C 55°F / 13°C 100% 29.95 in
(1014 mb)
Calm - 1/4SM
01:35
Mostly Cloudy
Fog And Mist
55°F / 13°C 55°F / 13°C 100% 29.95 in
(1014 mb)
Calm - 3/4SM
01:15
Mostly Cloudy
Fog
55°F / 13°C 55°F / 13°C 100% 29.95 in
(1014 mb)
Calm - 1/2SM
00:55
Obscured
Fog
55°F / 13°C 55°F / 13°C 100% 29.98 in
(1015 mb)
Calm - 1/2SM
00:35
Clear
Fog And Mist
55°F / 13°C 55°F / 13°C 100% 29.98 in
(1015 mb)
Calm - 2SM
00:15
Clear
Fog And Mist
55°F / 13°C 55°F / 13°C 100% 29.98 in
(1015 mb)
Calm - 3SM
Time Weather Temperature Dewpoint Humidity Pressure Winds Precip Visibility


Weather for websites

WeatherForYou.com, LLC is not responsible for any damages or problems caused by this service. Current weather conditions are obtained from the closest station including government and personal stations which may have varying degrees of accuracy. Weather forecasts are derived from the NOAA NDFD. Like all things, this site belongs to Jesus Christ... He just trusts me to maintain it. If you have any questions or comments email webmaster@weatherforyou.com

Copyright © 2014, WeatherForYou.com LLC. All rights reserved.